Regional Weather Roundup
Issued by NWS

Home | Current Version | Previous Version | Text Only | Print | Product List | Glossary Off
Versions: 1 2 3 4 5 6 7 8 9 10 11 12 13 14 15 16 17 18 19 20 21 22 23 24 25 26 27 28 29 30 31 32 33 34 35 36 37 38 39 40 41 42 43 44 45 46 47 48 49 50

000
ASUS43 KMKX 231321
RWRWI

WISCONSIN REGIONAL WEATHER ROUNDUP
NATIONAL WEATHER SERVICE MILWAUKEE/SULLIVAN WI
700 AM CST SUN NOV 23 2014

NOTE: "FAIR" INDICATES FEW OR NO CLOUDS BELOW 12,000 FEET WITH NO
SIGNIFICANT WEATHER AND/OR OBSTRUCTIONS TO VISIBILITY.

WIZ001-002-006>008-014>016-023>028-231400-
NORTHWEST WISCONSIN

CITY           SKY/WX    TMP DP  RH WIND       PRES   REMARKS
SUPERIOR ARPT  FOG       36  36 100 CALM      29.43R VSB 1/4
ASHLAND        CLOUDY    43  42  97 S6        29.43F
HAYWARD        CLOUDY    44  43  96 S10       29.45S FOG
SIREN          FOG       42  42  98 S7        29.44R VSB 1/4
CUMBERLAND     FOG       39  37  93 S8        29.46R VSB<1/4 WCI  34
RICE LAKE      FOG       41  40  97 SE7       29.48F VSB<1/4
CHETEK         FOG       43  43 100 SE6       29.48S VSB 1/4
LADYSMITH      FOG       45  44  98 S7        29.50F VSB 1/4
EAU CLAIRE     CLOUDY    47  46  97 S9        29.49F
MENOMONIE      CLOUDY    48  48  99 SE8       29.48S FOG
NEW RICHMOND   FOG       44  44 100 S3        29.46R VSB 1/4
OSCEOLA        FOG       43  43 100 SE7       29.47S VSB<1/4
$$

WIZ003>005-009-010-017-018-231400-
NORTH CENTRAL WISCONSIN

CITY           SKY/WX    TMP DP  RH WIND       PRES   REMARKS
MANITOWISH WTR FOG       41  41 100 S8        29.49F VSB 1/4
ARBOR VITAE    SNOW      43  42  95 S8G16     29.51S VSB 1/4
WOODRUFF       SNOW      43  42  95 S8G16     29.51S VSB 1/4
RHINELANDER    FOG       43  43 100 S8        29.54S VSB 1/2
EAGLE RIVER    FOG       43  43 100 S8        29.52S VSB 1/4
LAND O LAKES   FOG       43  43 100 S7        29.52F VSB 1/4
PHILLIPS       FOG       42  42 100 S9        29.49F VSB 1/4
TOMAHAWK       FOG       41  40  97 CALM      29.54S VSB 1/4
MEDFORD        FOG       42  41  99 S8        29.53S VSB<1/4
MERRILL        CLOUDY    44  44 100 S7        29.55S FOG
$$

WIZ029-030-035-036-043>047-231400-
CENTRAL WISCONSIN

CITY           SKY/WX    TMP DP  RH WIND       PRES   REMARKS
WAUSAU         FOG       44  44 100 S8        29.55F VSB 1/4
MOSINEE        FOG       43  43 100 S10       29.57F VSB 1/4
MARSHFIELD     LGT RAIN  46  45  96 S7        29.55F VSB 1/4
STEVENS POINT  CLOUDY    45  45 100 S13       29.58F FOG
WAUPACA        CLOUDY    49  47  95 S7        29.61F FOG
WAUTOMA        CLOUDY    48  48 100 S8        29.62S FOG
WISC RAPIDS    CLOUDY    48  46  93 S8        29.58F
CAMP DOUGLAS   CLOUDY    49  49 100 S6        29.57S
$$

WIZ011>013-019>022-031-037>040-048>050-231400-
NORTHEAST WISCONSIN

CITY           SKY/WX    TMP DP  RH WIND       PRES   REMARKS
ANTIGO         FOG       38  38 100 S9        29.57F VSB 1/4 WCI  31
SHAWANO        CLOUDY    48  47  95 S7        29.61F FOG
OCONTO         CLOUDY    42  42 100 S6        29.63F VSB 1/2
STURGEON BAY   CLOUDY    45  43  93 S12       29.66F
GREEN BAY      CLOUDY    47  46  97 S7        29.63F FOG
MANITOWOC      FOG       45  45 100 S14       29.67F VSB 1/4
APPLETON       FOG       43  43 100 SE6       29.63F VSB 3/8
CLINTONVILLE   CLOUDY    45  45 100 S8        29.61S FOG
OSHKOSH        CLOUDY    48  46  93 S13       29.63F FOG
$$

WIZ032>034-041-042-053>061-231400-
SOUTHWEST WISCONSIN

CITY           SKY/WX    TMP DP  RH WIND       PRES   REMARKS
LA CROSSE      LGT RAIN  51  48  89 S15       29.54S FOG
SPARTA         CLOUDY    50  48  93 S12G17    29.56S
VIROQUA        CLOUDY    48  48 100 S9        29.56S
BOSCOBEL       CLOUDY    52  49  89 S8        29.59F
PRAIRIE DU CHI CLOUDY    51  48  90 SE6       29.57F
PLATTEVILLE    CLOUDY    49  48  97 S12       29.64S
$$

WIZ056-057-062-063-064-067-068-231400-
SOUTH CENTRAL WISCONSIN

CITY           SKY/WX    TMP DP  RH WIND       PRES   REMARKS
REEDSBURG      CLOUDY    48  48  98 S9        29.59F
BARABOO/DELLS  CLOUDY    47  46  95 S10       29.60F FOG
LONE ROCK      CLOUDY    54  48  80 S12       29.61F
MINERAL POINT  CLOUDY    50  48  93 S10       29.62S FOG
MADISON        CLOUDY    49  47  93 S10       29.65F FOG
MIDDLETON      CLOUDY    50  50  98 S8        29.65S
WATERTOWN      CLOUDY    47  47 100 S9        29.66S FOG
MONROE         CLOUDY    46  46 100 S15G21    29.65F FOG
JANESVILLE     NOT AVBL
$$

WIZ051-052-058>065-066-070>072-231400-
SOUTHEAST WISCONSIN

CITY           SKY/WX    TMP DP  RH WIND       PRES   REMARKS
MILWAUKEE      CLOUDY    49  46  90 S10       29.71S FOG
WAUKESHA       CLOUDY    46  46 100 S5        29.70S FOG
MILWAUKEE/TIMM DRIZZLE   48  46  93 S9G17     29.69F FOG
RACINE         CLOUDY    49  44  83 S9        29.73S
BURLINGTON     CLOUDY    47  45  95 S12       29.70S
KENOSHA        CLOUDY    50  45  83 S13       29.72S
FOND DU LAC    CLOUDY    49  46  90 S15       29.64F
SHEBOYGAN      CLOUDY    46  44  93 SE9       29.68S FOG
WEST BEND      CLOUDY    48  45  87 S6        29.67S
JUNEAU         CLOUDY    47  46  98 S13       29.67S FOG
$$

LSZ147-162-231400-
LAKE SUPERIOR

STATION/POSITION TIME  TEMP    WIND        PRES    WAVE
                       AIR SEA DIR/SP/G            HT/PER
                 (UTC) (F)     (DEG/KT/KT) (MB)    (FT/S)
DEVILS ISLAND    1300   41     250/  2/  3  997.0F
PORT WING        1240   37      50/  3/  5  997.0S
SAXON HARBOR     1200   48     200/  6/ 14  997.3F
$$

LMZ867-665-643>646-231400-
LAKE MICHIGAN

STATION/POSITION TIME  TEMP    WIND        PRES    WAVE
                       AIR SEA DIR/SP/G            HT/PER
                 (UTC) (F)     (DEG/KT/KT) (MB)    (FT/S)
CHAMBERS ISLAND  1200   46     170/  6/ 15 1004.4S
N MID LAKE BUOY  1250   45 42  200/ 21/ 25 1004.9F   4/ 5
NORTHPORT PIER   1200   44     160/  7/ 16 1004.7S
SISTER BAY       1213          180/ 12/ 15   N/A
KEWAUNEE LAKESHO 1300   40     180/  8/  9 1003.9F
SHEBOYGAN LAKESH 1300   44 39  180/ 16/ 17 1005.6F
PORT WASHINGTON  1200   45     200/  4/  6 1006.4F
ATWATER BUOY     1300   49      CALM  /  2 1007.0F
MILWAUKEE LAKESH 1300   49     190/ 11/ 14   N/A
S MID LAKE BUOY  1250   45 43  170/ 17/ 19 1007.8F   3/ 5
KENOSHA   LAKESH 1300   44     170/ 10/ 13 1006.8S
$$

TC  - TEMPERATURE IN CELSIUS
VSB - VISIBILITY IN STATUTE MILES
WCI - WIND CHILL INDEX
HX  - HEAT INDEX



USA.gov is the U.S. government's official web portal to all federal, state and local government web resources and services.